BLY212 CYYZ-EINN

Flight info

Callsign BLY212
Flight time 6h 14m
Altitude 33000
Route VERDO7 LORKA Q907 IMAMA/N0461F350 Q907 MIILS DCT TAGRA DCT PERLU DCT NICSO/M079F350 DCT 48N050W 48N040W 50N030W 52N020W DCT TOBOR/N0454F350 DCT RILED DCT LUPOR LUPOR2E
Aircraft A21N/M-SDE2E3FGHIRWXY/LB1

Departure

Time 2026-05-08 12:25
Airport Toronto Pearson International Airport (CYYZ)

Arrival

Time 2026-05-08 18:39
Airport Shannon Airport (EINN)
Time Latitude Longitude Altitude Speed Heading
2026-05-08 11:53 43.67617 -79.61322 566 ft 0 kts 42°
2026-05-08 12:13 43.67616 -79.61322 566 ft 0 kts 42°
2026-05-08 12:13 43.67600 -79.61343 574 ft 4 kts 42°
2026-05-08 12:13 43.67584 -79.61363 574 ft 4 kts 44°
2026-05-08 12:14 43.67565 -79.61390 571 ft 4 kts 50°
2026-05-08 12:14 43.67549 -79.61419 570 ft 4 kts 59°
2026-05-08 12:14 43.67538 -79.61450 568 ft 2 kts 72°
2026-05-08 12:14 43.67536 -79.61458 566 ft 0 kts 72°
2026-05-08 12:20 43.67538 -79.61450 568 ft 2 kts 77°
2026-05-08 12:20 43.67536 -79.61426 572 ft 3 kts 104°
2026-05-08 12:20 43.67521 -79.61384 567 ft 7 kts 118°
2026-05-08 12:21 43.67494 -79.61314 566 ft 10 kts 122°
2026-05-08 12:21 43.67422 -79.61295 563 ft 14 kts 200°
2026-05-08 12:21 43.67324 -79.61347 565 ft 16 kts 201°
2026-05-08 12:21 43.67252 -79.61430 568 ft 0 kts 224°
2026-05-08 12:22 43.67250 -79.61432 561 ft 2 kts 224°
2026-05-08 12:22 43.67230 -79.61458 568 ft 6 kts 223°
2026-05-08 12:23 43.67191 -79.61510 567 ft 9 kts 223°
2026-05-08 12:23 43.67176 -79.61535 563 ft 2 kts 243°
2026-05-08 12:23 43.67174 -79.61567 561 ft 5 kts 278°
2026-05-08 12:23 43.67186 -79.61594 567 ft 0 kts 314°
2026-05-08 12:24 43.67195 -79.61608 567 ft 9 kts 315°
2026-05-08 12:24 43.67379 -79.61853 574 ft 63 kts 317°
2026-05-08 12:24 43.67833 -79.62436 569 ft 116 kts 316°
2026-05-08 12:24 43.68552 -79.63377 577 ft 167 kts 317°
2026-05-08 12:25 43.69461 -79.64498 850 ft 176 kts 318°
2026-05-08 12:25 43.70375 -79.65640 1328 ft 176 kts 315°
2026-05-08 12:25 43.71234 -79.66786 1991 ft 168 kts 314°
2026-05-08 12:25 43.72142 -79.67869 2424 ft 181 kts 324°
2026-05-08 12:26 43.73284 -79.68755 2722 ft 202 kts 336°
2026-05-08 12:26 43.74744 -79.69090 2937 ft 230 kts
2026-05-08 12:26 43.76253 -79.68105 3108 ft 256 kts 42°
2026-05-08 12:26 43.77454 -79.66228 3688 ft 264 kts 50°
2026-05-08 12:27 43.78580 -79.64203 4377 ft 268 kts 51°
2026-05-08 12:27 43.79333 -79.62838 4830 ft 271 kts 50°
2026-05-08 12:27 43.80491 -79.60760 5549 ft 274 kts 49°
2026-05-08 12:27 43.81578 -79.58582 6363 ft 278 kts 61°
2026-05-08 12:28 43.82059 -79.55090 7274 ft 289 kts 98°
2026-05-08 12:28 43.81523 -79.52384 7964 ft 294 kts 110°
2026-05-08 12:28 43.80789 -79.49720 8677 ft 298 kts 112°
2026-05-08 12:28 43.80275 -79.47910 9166 ft 301 kts 112°
2026-05-08 12:29 43.79261 -79.44304 10093 ft 307 kts 111°
2026-05-08 12:29 43.78747 -79.42454 10366 ft 317 kts 111°
2026-05-08 12:29 43.77936 -79.39506 10621 ft 337 kts 111°
2026-05-08 12:29 43.77080 -79.36382 10877 ft 357 kts 111°
2026-05-08 12:30 43.76179 -79.33083 11148 ft 376 kts 111°
2026-05-08 12:30 43.75291 -79.29587 11435 ft 394 kts 105°
2026-05-08 12:30 43.74961 -79.25778 11927 ft 404 kts 89°
2026-05-08 12:30 43.75077 -79.21881 12611 ft 408 kts 85°
2026-05-08 12:31 43.75270 -79.17995 13288 ft 413 kts 84°
2026-05-08 12:31 43.75472 -79.14020 13946 ft 417 kts 84°
2026-05-08 12:31 43.75670 -79.10001 14490 ft 421 kts 84°
2026-05-08 12:31 43.75864 -79.05934 15039 ft 426 kts 84°
2026-05-08 12:32 43.76056 -79.01816 15511 ft 432 kts 84°
2026-05-08 12:32 43.76246 -78.97652 16036 ft 436 kts 84°
2026-05-08 12:32 43.76434 -78.93451 16611 ft 439 kts 84°
2026-05-08 12:32 43.76622 -78.89222 17148 ft 442 kts 84°
2026-05-08 12:33 43.76810 -78.84969 17679 ft 445 kts 84°
2026-05-08 12:33 43.77019 -78.80743 18193 ft 447 kts 81°
2026-05-08 12:33 43.77556 -78.76509 18623 ft 447 kts 70°
2026-05-08 12:33 43.78612 -78.72484 19026 ft 445 kts 61°
2026-05-08 12:34 43.79920 -78.68589 19452 ft 448 kts 59°
2026-05-08 12:34 43.81283 -78.64691 19861 ft 452 kts 59°
2026-05-08 12:34 43.82659 -78.60757 20283 ft 456 kts 59°
2026-05-08 12:34 43.84039 -78.56789 20712 ft 459 kts 59°
2026-05-08 12:35 43.85424 -78.52788 21207 ft 461 kts 59°
2026-05-08 12:35 43.86803 -78.48788 21796 ft 460 kts 59°
2026-05-08 12:35 43.88167 -78.44824 22152 ft 465 kts 59°
2026-05-08 12:35 43.89564 -78.40759 22500 ft 469 kts 59°
2026-05-08 12:36 43.90971 -78.36659 22865 ft 472 kts 58°
2026-05-08 12:36 43.92383 -78.32535 23232 ft 476 kts 58°
2026-05-08 12:36 43.93805 -78.28372 23568 ft 479 kts 58°
2026-05-08 12:36 43.95234 -78.24183 23855 ft 482 kts 58°
2026-05-08 12:37 43.96672 -78.19961 24147 ft 485 kts 58°
2026-05-08 12:37 43.98113 -78.15721 24448 ft 487 kts 58°
2026-05-08 12:37 43.99543 -78.11508 24747 ft 490 kts 58°
2026-05-08 12:37 44.00991 -78.07236 25187 ft 487 kts 59°
2026-05-08 12:38 44.02425 -78.02990 25683 ft 485 kts 59°
2026-05-08 12:38 44.03858 -77.98749 26015 ft 485 kts 59°
2026-05-08 12:38 44.05292 -77.94499 26348 ft 486 kts 59°
2026-05-08 12:38 44.06731 -77.90230 26632 ft 488 kts 60°
2026-05-08 12:39 44.08168 -77.85957 26954 ft 488 kts 60°
2026-05-08 12:39 44.09605 -77.81675 27311 ft 488 kts 60°
2026-05-08 12:39 44.11021 -77.77450 27632 ft 488 kts 59°
2026-05-08 12:39 44.12454 -77.73169 27970 ft 488 kts 59°
2026-05-08 12:40 44.13887 -77.68879 28302 ft 489 kts 59°
2026-05-08 12:40 44.15320 -77.64584 28616 ft 489 kts 59°
2026-05-08 12:40 44.16748 -77.60297 28931 ft 489 kts 59°
2026-05-08 12:40 44.18179 -77.55997 29250 ft 489 kts 60°
2026-05-08 12:41 44.19623 -77.51709 29539 ft 488 kts 58°
2026-05-08 12:41 44.21283 -77.47608 29811 ft 485 kts 53°
2026-05-08 12:41 44.23059 -77.43611 30080 ft 484 kts 52°
2026-05-08 12:41 44.24827 -77.39695 30295 ft 484 kts 52°
2026-05-08 12:42 44.26622 -77.35719 30506 ft 484 kts 52°
2026-05-08 12:42 44.28416 -77.31737 30715 ft 485 kts 52°
2026-05-08 12:42 44.30150 -77.27880 30972 ft 484 kts 53°
2026-05-08 12:42 44.31984 -77.23788 31262 ft 482 kts 53°
2026-05-08 12:43 44.33761 -77.19820 31458 ft 482 kts 53°
2026-05-08 12:43 44.35545 -77.15832 31563 ft 485 kts 53°
2026-05-08 12:43 44.37306 -77.11889 31703 ft 486 kts 53°
2026-05-08 12:43 44.39094 -77.07876 31891 ft 486 kts 53°
2026-05-08 12:44 44.40879 -77.03865 32071 ft 486 kts 53°
2026-05-08 12:44 44.42664 -76.99850 32248 ft 486 kts 53°
2026-05-08 12:44 44.44447 -76.95833 32426 ft 486 kts 53°
2026-05-08 12:44 44.46229 -76.91811 32632 ft 485 kts 54°
2026-05-08 12:45 44.48004 -76.87799 32827 ft 485 kts 54°
2026-05-08 12:45 44.49780 -76.83783 32942 ft 486 kts 54°
2026-05-08 12:45 44.53339 -76.75716 32940 ft 493 kts 54°
2026-05-08 12:46 44.56971 -76.67462 32943 ft 500 kts 54°
2026-05-08 12:46 44.60620 -76.59137 32937 ft 501 kts 55°
2026-05-08 12:47 44.64254 -76.50823 32932 ft 499 kts 55°
2026-05-08 12:47 44.67856 -76.42560 32930 ft 499 kts 55°
2026-05-08 12:48 44.71473 -76.34241 32929 ft 499 kts 55°
2026-05-08 12:48 44.75086 -76.25906 32950 ft 499 kts 55°
2026-05-08 12:49 44.78155 -76.17144 32923 ft 501 kts 66°
2026-05-08 12:49 44.80611 -76.07949 32922 ft 502 kts 68°
2026-05-08 12:50 44.82934 -75.98744 32917 ft 502 kts 68°
2026-05-08 12:50 44.85283 -75.89493 32914 ft 502 kts 68°
2026-05-08 12:51 44.88846 -75.75595 32910 ft 502 kts 68°
2026-05-08 12:52 44.91199 -75.66410 32905 ft 501 kts 68°
2026-05-08 12:52 44.94734 -75.52535 32902 ft 501 kts 68°
2026-05-08 12:53 44.97083 -75.43267 32904 ft 501 kts 68°
2026-05-08 12:53 44.99419 -75.34007 32899 ft 501 kts 68°
2026-05-08 12:54 45.01739 -75.24777 32916 ft 502 kts 69°
2026-05-08 12:54 45.04064 -75.15488 32892 ft 501 kts 69°
2026-05-08 12:55 45.06378 -75.06207 32892 ft 500 kts 69°
2026-05-08 12:55 45.08684 -74.96914 32892 ft 500 kts 69°
2026-05-08 12:56 45.10984 -74.87614 32886 ft 500 kts 69°
2026-05-08 12:56 45.13260 -74.78377 32887 ft 501 kts 69°
2026-05-08 12:57 45.15673 -74.69118 32876 ft 500 kts 67°
2026-05-08 12:57 45.18154 -74.59930 32876 ft 499 kts 67°
2026-05-08 12:58 45.20631 -74.50731 32870 ft 499 kts 67°
2026-05-08 12:58 45.23068 -74.41584 32870 ft 499 kts 68°
2026-05-08 12:59 45.25508 -74.32360 32867 ft 500 kts 68°
2026-05-08 12:59 45.27941 -74.23120 32875 ft 500 kts 68°
2026-05-08 13:00 45.30365 -74.13877 32868 ft 499 kts 68°
2026-05-08 13:00 45.32763 -74.04698 32871 ft 499 kts 68°
2026-05-08 13:01 45.35169 -73.95457 32873 ft 499 kts 68°
2026-05-08 13:01 45.37570 -73.86197 32875 ft 499 kts 68°
2026-05-08 13:02 45.39966 -73.76921 32879 ft 500 kts 68°
2026-05-08 13:02 45.42336 -73.67706 32878 ft 499 kts 68°
2026-05-08 13:03 45.44711 -73.58438 32880 ft 498 kts 69°
2026-05-08 13:03 45.47077 -73.49166 32861 ft 498 kts 69°
2026-05-08 13:04 45.49436 -73.39887 32871 ft 498 kts 69°
2026-05-08 13:04 45.51781 -73.30621 32871 ft 492 kts 69°
2026-05-08 13:05 45.54083 -73.21489 32867 ft 496 kts 69°
2026-05-08 13:05 45.56422 -73.12180 32861 ft 499 kts 69°
2026-05-08 13:06 45.58753 -73.02861 32862 ft 499 kts 69°
2026-05-08 13:06 45.61079 -72.93523 32860 ft 499 kts 69°
2026-05-08 13:07 45.63381 -72.84243 32860 ft 499 kts 69°
2026-05-08 13:07 45.65693 -72.74883 32873 ft 499 kts 69°
2026-05-08 13:08 45.67993 -72.65535 32852 ft 498 kts 69°
2026-05-08 13:08 45.70280 -72.56200 32863 ft 497 kts 69°
2026-05-08 13:09 45.72558 -72.46863 32856 ft 497 kts 69°
2026-05-08 13:09 45.74816 -72.37573 32855 ft 498 kts 70°
2026-05-08 13:10 45.77085 -72.28194 32850 ft 498 kts 70°
2026-05-08 13:10 45.79345 -72.18815 32844 ft 497 kts 70°
2026-05-08 13:11 45.81592 -72.09450 32846 ft 497 kts 70°
2026-05-08 13:11 45.83814 -72.00151 32837 ft 496 kts 70°
2026-05-08 13:12 45.86046 -71.90774 32837 ft 497 kts 70°
2026-05-08 13:12 45.88271 -71.81383 32833 ft 497 kts 70°
2026-05-08 13:13 45.90488 -71.71987 32847 ft 497 kts 70°
2026-05-08 13:13 45.92680 -71.62652 32834 ft 496 kts 70°
2026-05-08 13:14 45.94877 -71.53260 32833 ft 496 kts 70°
2026-05-08 13:14 45.97067 -71.43860 32824 ft 497 kts 71°
2026-05-08 13:15 45.99253 -71.34432 32834 ft 497 kts 71°
2026-05-08 13:15 46.01417 -71.25061 32829 ft 497 kts 71°
2026-05-08 13:16 46.03588 -71.15616 32823 ft 496 kts 71°
2026-05-08 13:16 46.05746 -71.06192 32819 ft 495 kts 71°
2026-05-08 13:17 46.07892 -70.96771 32821 ft 495 kts 71°
2026-05-08 13:17 46.10034 -70.87331 32810 ft 496 kts 71°
2026-05-08 13:18 46.12154 -70.77946 32801 ft 496 kts 71°
2026-05-08 13:18 46.14282 -70.68487 32802 ft 496 kts 72°
2026-05-08 13:19 46.16398 -70.59040 32795 ft 494 kts 72°
2026-05-08 13:19 46.18503 -70.49596 32795 ft 494 kts 72°
2026-05-08 13:20 46.20585 -70.40212 32787 ft 495 kts 72°
2026-05-08 13:20 46.22678 -70.30741 32792 ft 495 kts 72°
2026-05-08 13:21 46.24751 -70.21252 32792 ft 495 kts 73°
2026-05-08 13:21 46.26780 -70.11747 32793 ft 495 kts 73°
2026-05-08 13:22 46.28792 -70.02249 32786 ft 494 kts 73°
2026-05-08 13:22 46.30786 -69.92808 32777 ft 495 kts 73°
2026-05-08 13:23 46.32792 -69.83284 32771 ft 495 kts 73°
2026-05-08 13:23 46.34791 -69.73750 32785 ft 495 kts 73°
2026-05-08 13:24 46.36785 -69.64201 32781 ft 495 kts 73°
2026-05-08 13:24 46.38755 -69.54720 32778 ft 495 kts 74°
2026-05-08 13:25 46.40729 -69.45172 32785 ft 495 kts 74°
2026-05-08 13:25 46.42700 -69.35591 32783 ft 497 kts 75°
2026-05-08 13:26 46.44666 -69.25989 32780 ft 497 kts 75°
2026-05-08 13:26 46.46611 -69.16445 32777 ft 497 kts 75°
2026-05-08 13:27 46.48560 -69.06834 32778 ft 497 kts 75°
2026-05-08 13:27 46.50501 -68.97217 32780 ft 496 kts 75°
2026-05-08 13:28 46.52433 -68.87597 32765 ft 496 kts 75°
2026-05-08 13:28 46.54356 -68.77970 32760 ft 496 kts 75°
2026-05-08 13:29 46.56259 -68.68403 32766 ft 496 kts 75°
2026-05-08 13:29 46.58166 -68.58766 32761 ft 496 kts 75°
2026-05-08 13:30 46.60066 -68.49119 32752 ft 496 kts 75°
2026-05-08 13:30 46.61959 -68.39461 32775 ft 497 kts 76°
2026-05-08 13:31 46.63832 -68.29849 32775 ft 497 kts 76°
2026-05-08 13:31 46.65711 -68.20166 32779 ft 497 kts 76°
2026-05-08 13:32 46.67581 -68.10474 32775 ft 497 kts 76°
2026-05-08 13:32 46.69442 -68.00784 32777 ft 497 kts 76°
2026-05-08 13:33 46.71285 -67.91141 32777 ft 498 kts 77°
2026-05-08 13:33 46.73138 -67.81391 32779 ft 500 kts 77°
2026-05-08 13:34 46.74986 -67.71625 32781 ft 500 kts 77°
2026-05-08 13:34 46.76826 -67.61851 32796 ft 501 kts 77°
2026-05-08 13:35 46.77746 -67.56947 32980 ft 501 kts 77°
2026-05-08 13:35 46.78650 -67.52116 33196 ft 500 kts 77°
2026-05-08 13:35 46.79561 -67.47230 33369 ft 500 kts 77°
2026-05-08 13:35 46.80474 -67.42328 33462 ft 501 kts 78°
2026-05-08 13:36 46.82294 -67.32500 33689 ft 502 kts 78°
2026-05-08 13:36 46.83204 -67.27573 33835 ft 502 kts 78°
2026-05-08 13:36 46.84111 -67.22649 33949 ft 502 kts 78°
2026-05-08 13:37 46.85016 -67.17723 34068 ft 502 kts 78°
2026-05-08 13:37 46.85919 -67.12792 34176 ft 502 kts 78°
2026-05-08 13:37 46.86804 -67.07928 34293 ft 502 kts 80°
2026-05-08 13:37 46.87426 -67.02933 34368 ft 499 kts 85°
2026-05-08 13:38 46.87886 -66.97908 34475 ft 498 kts 87°
2026-05-08 13:38 46.88291 -66.92873 34552 ft 498 kts 88°
2026-05-08 13:38 46.89021 -66.82771 34640 ft 501 kts 88°
2026-05-08 13:39 46.89729 -66.72639 34736 ft 501 kts 89°
2026-05-08 13:39 46.90434 -66.62580 34724 ft 501 kts 89°
2026-05-08 13:40 46.91143 -66.52452 34719 ft 501 kts 89°
2026-05-08 13:40 46.91847 -66.42320 34709 ft 501 kts 89°
2026-05-08 13:41 46.92540 -66.32177 34712 ft 502 kts 89°
2026-05-08 13:41 46.93226 -66.22023 34715 ft 501 kts 89°
2026-05-08 13:42 46.93898 -66.11941 34716 ft 501 kts 89°
2026-05-08 13:42 46.94565 -66.01783 34718 ft 501 kts 90°
2026-05-08 13:43 46.95224 -65.91628 34717 ft 501 kts 90°
2026-05-08 13:43 46.95873 -65.81473 34717 ft 501 kts 91°
2026-05-08 13:44 46.96509 -65.71381 34716 ft 501 kts 91°
2026-05-08 13:44 46.97039 -65.62839 34717 ft 501 kts 91°
2026-05-08 13:45 46.97642 -65.53023 34717 ft 501 kts 91°
2026-05-08 13:45 46.98253 -65.42933 34711 ft 501 kts 91°
2026-05-08 13:46 46.98858 -65.32768 34711 ft 501 kts 91°
2026-05-08 13:46 46.99455 -65.22605 34710 ft 501 kts 91°
2026-05-08 13:47 47.00041 -65.12445 34710 ft 500 kts 92°
2026-05-08 13:47 47.00614 -65.02368 34677 ft 499 kts 92°
2026-05-08 13:48 47.01182 -64.92225 34708 ft 500 kts 93°
2026-05-08 13:48 47.01741 -64.82072 34708 ft 500 kts 93°
2026-05-08 13:49 47.02291 -64.71931 34711 ft 500 kts 93°
2026-05-08 13:49 47.02832 -64.61791 34711 ft 500 kts 93°
2026-05-08 13:50 47.03346 -64.52032 34698 ft 499 kts 94°
2026-05-08 13:50 47.03869 -64.41877 34715 ft 500 kts 94°
2026-05-08 13:51 47.04385 -64.31698 34713 ft 500 kts 94°
2026-05-08 13:51 47.04892 -64.21524 34717 ft 500 kts 94°
2026-05-08 13:52 47.05386 -64.11426 34719 ft 500 kts 94°
2026-05-08 13:52 47.05874 -64.01253 34715 ft 500 kts 95°
2026-05-08 13:53 47.06353 -63.91090 34711 ft 500 kts 95°
2026-05-08 13:53 47.06823 -63.80918 34710 ft 500 kts 95°
2026-05-08 13:54 47.07280 -63.70823 34700 ft 499 kts 95°
2026-05-08 13:54 47.07732 -63.60662 34658 ft 499 kts 95°
2026-05-08 13:55 47.08174 -63.50505 34711 ft 499 kts 95°
2026-05-08 13:56 47.08820 -63.35279 34713 ft 498 kts 95°
2026-05-08 13:56 47.09236 -63.25197 34707 ft 498 kts 95°
2026-05-08 13:57 47.09646 -63.15055 34716 ft 498 kts 96°
2026-05-08 13:57 47.10048 -63.04917 34713 ft 497 kts 96°
2026-05-08 13:58 47.10440 -62.94812 34722 ft 495 kts 96°
2026-05-08 13:58 47.10818 -62.84785 34712 ft 495 kts 96°
2026-05-08 13:59 47.11190 -62.74705 34724 ft 494 kts 97°
2026-05-08 13:59 47.11552 -62.64647 34666 ft 493 kts 97°
2026-05-08 14:00 47.11905 -62.54604 34724 ft 492 kts 97°
2026-05-08 14:00 47.12246 -62.44647 34730 ft 492 kts 97°
2026-05-08 14:01 47.12580 -62.34625 34730 ft 491 kts 98°
2026-05-08 14:01 47.12906 -62.24601 34727 ft 491 kts 98°
2026-05-08 14:02 47.13223 -62.14583 34700 ft 491 kts 98°
2026-05-08 14:02 47.13530 -62.04653 34723 ft 489 kts 99°
2026-05-08 14:03 47.13829 -61.94694 34726 ft 488 kts 99°
2026-05-08 14:03 47.14116 -61.84745 34707 ft 487 kts 99°
2026-05-08 14:04 47.14395 -61.74794 34710 ft 487 kts 99°
2026-05-08 14:04 47.14665 -61.64924 34699 ft 487 kts 100°
2026-05-08 14:05 47.14928 -61.55004 34706 ft 486 kts 100°
2026-05-08 14:05 47.15181 -61.45092 34714 ft 485 kts 100°
2026-05-08 14:06 47.15424 -61.35192 34716 ft 485 kts 100°
2026-05-08 14:06 47.15659 -61.25349 34709 ft 485 kts 101°
2026-05-08 14:07 47.15886 -61.15448 34715 ft 485 kts 101°
2026-05-08 14:07 47.16104 -61.05513 34727 ft 486 kts 101°
2026-05-08 14:08 47.16315 -60.95584 34729 ft 486 kts 101°
2026-05-08 14:08 47.16517 -60.85720 34723 ft 486 kts 101°
2026-05-08 14:09 47.16711 -60.75791 34725 ft 486 kts 101°
2026-05-08 14:09 47.16897 -60.65867 34719 ft 486 kts 101°
2026-05-08 14:10 47.17073 -60.55946 34719 ft 486 kts 101°
2026-05-08 14:10 47.17241 -60.46026 34715 ft 485 kts 101°
2026-05-08 14:11 47.17399 -60.36182 34718 ft 485 kts 101°
2026-05-08 14:11 47.17550 -60.26266 34710 ft 485 kts 101°
2026-05-08 14:12 47.17692 -60.16343 34701 ft 485 kts 102°
2026-05-08 14:12 47.17824 -60.06496 34705 ft 485 kts 102°
2026-05-08 14:13 47.17949 -59.96584 34710 ft 485 kts 102°
2026-05-08 14:13 47.18066 -59.86668 34695 ft 485 kts 102°
2026-05-08 14:14 47.18174 -59.76762 34692 ft 485 kts 102°
2026-05-08 14:14 47.18272 -59.66851 34689 ft 486 kts 103°
2026-05-08 14:15 47.18360 -59.56982 34692 ft 486 kts 103°
2026-05-08 14:15 47.18444 -59.47043 34693 ft 486 kts 103°
2026-05-08 14:16 47.18519 -59.37107 34688 ft 486 kts 103°
2026-05-08 14:16 47.18585 -59.27175 34684 ft 486 kts 103°
2026-05-08 14:17 47.18642 -59.17245 34686 ft 485 kts 103°
2026-05-08 14:17 47.18691 -59.07395 34683 ft 485 kts 103°
2026-05-08 14:18 47.18731 -58.97479 34675 ft 485 kts 103°
2026-05-08 14:18 47.18762 -58.87567 34667 ft 485 kts 104°
2026-05-08 14:19 47.18784 -58.77658 34629 ft 484 kts 103°
2026-05-08 14:19 47.18796 -58.67810 34675 ft 486 kts 103°
2026-05-08 14:20 47.18801 -58.57870 34671 ft 487 kts 103°
2026-05-08 14:20 47.18794 -58.47888 34672 ft 490 kts 103°
2026-05-08 14:21 47.18783 -58.37857 34670 ft 490 kts 103°
2026-05-08 14:21 47.18766 -58.27911 34645 ft 490 kts 103°
2026-05-08 14:22 47.18737 -58.17878 34669 ft 491 kts 103°
2026-05-08 14:22 47.18698 -58.07844 34662 ft 491 kts 103°
2026-05-08 14:23 47.18651 -57.97802 34670 ft 491 kts 103°
2026-05-08 14:23 47.18596 -57.87820 34661 ft 492 kts 103°
2026-05-08 14:24 47.18532 -57.77775 34655 ft 491 kts 103°
2026-05-08 14:24 47.18457 -57.67722 34661 ft 493 kts 103°
2026-05-08 14:25 47.18375 -57.57647 34664 ft 492 kts 103°
2026-05-08 14:25 47.18284 -57.47584 34665 ft 493 kts 103°
2026-05-08 14:26 47.18186 -57.37585 34664 ft 492 kts 103°
2026-05-08 14:26 47.18076 -57.27527 34668 ft 493 kts 102°
2026-05-08 14:27 47.17957 -57.17440 34663 ft 494 kts 102°
2026-05-08 14:27 47.17937 -57.07312 34663 ft 501 kts 98°
2026-05-08 14:28 47.18346 -56.97150 34653 ft 502 kts 97°
2026-05-08 14:28 47.18848 -56.86902 34643 ft 503 kts 97°
2026-05-08 14:29 47.19356 -56.76655 34633 ft 502 kts 96°
2026-05-08 14:29 47.19846 -56.66438 34633 ft 500 kts 96°
2026-05-08 14:31 47.20292 -56.56795 34617 ft 500 kts 96°
2026-05-08 14:31 47.20752 -56.46595 34618 ft 499 kts 96°
2026-05-08 14:32 47.21422 -56.31382 34545 ft 499 kts 97°
2026-05-08 14:32 47.21859 -56.21192 34598 ft 499 kts 96°
2026-05-08 14:33 47.22288 -56.11001 34613 ft 499 kts 97°
2026-05-08 14:33 47.22708 -56.00812 34591 ft 499 kts 97°
2026-05-08 14:34 47.23116 -55.90697 34604 ft 499 kts 97°
2026-05-08 14:34 47.23518 -55.80507 34586 ft 499 kts 97°
2026-05-08 14:35 47.23910 -55.70323 34608 ft 498 kts 96°
2026-05-08 14:35 47.24293 -55.60153 34618 ft 498 kts 96°
2026-05-08 14:36 47.24665 -55.50045 34626 ft 498 kts 96°
2026-05-08 14:36 47.25030 -55.39880 34627 ft 497 kts 96°
2026-05-08 14:37 47.25385 -55.29719 34658 ft 497 kts 96°
2026-05-08 14:37 47.25730 -55.19548 34674 ft 498 kts 95°
2026-05-08 14:38 47.26066 -55.09423 34700 ft 499 kts 95°
2026-05-08 14:38 47.26397 -54.99217 34713 ft 499 kts 95°
2026-05-08 14:39 47.26718 -54.89022 34718 ft 499 kts 96°
2026-05-08 14:39 47.27031 -54.78828 34720 ft 498 kts 96°
2026-05-08 14:40 47.27332 -54.68700 34706 ft 498 kts 95°
2026-05-08 14:40 47.27623 -54.58481 34716 ft 501 kts 95°
2026-05-08 14:41 47.27907 -54.48232 34719 ft 501 kts 95°
2026-05-08 14:41 47.28185 -54.37975 34719 ft 501 kts 95°
2026-05-08 14:42 47.28453 -54.27724 34714 ft 501 kts 95°
2026-05-08 14:42 47.28709 -54.17538 34710 ft 501 kts 95°
2026-05-08 14:43 47.28963 -54.07289 34710 ft 502 kts 94°
2026-05-08 14:43 47.29857 -53.97001 34712 ft 508 kts 88°
2026-05-08 14:44 47.30970 -53.86720 34713 ft 508 kts 88°
2026-05-08 14:44 47.32113 -53.76512 34718 ft 508 kts 88°
2026-05-08 14:45 47.33246 -53.66237 34719 ft 508 kts 88°
2026-05-08 14:45 47.34360 -53.55959 34718 ft 507 kts 88°
2026-05-08 14:46 47.35460 -53.45696 34721 ft 506 kts 88°
2026-05-08 14:46 47.36546 -53.35449 34730 ft 506 kts 88°
2026-05-08 14:47 47.37615 -53.25264 34730 ft 506 kts 88°
2026-05-08 14:47 47.38683 -53.15011 34730 ft 505 kts 88°
2026-05-08 14:48 47.39741 -53.04758 34737 ft 505 kts 88°
2026-05-08 14:48 47.40790 -52.94508 34736 ft 506 kts 88°
2026-05-08 14:49 47.41824 -52.84300 34749 ft 506 kts 88°
2026-05-08 14:49 47.42857 -52.74022 34753 ft 506 kts 88°
2026-05-08 14:50 47.43876 -52.63777 34753 ft 506 kts 88°
2026-05-08 14:50 47.44891 -52.53493 34756 ft 506 kts 88°
2026-05-08 14:51 47.45887 -52.43284 34778 ft 506 kts 88°
2026-05-08 14:51 47.46879 -52.33026 34789 ft 506 kts 87°
2026-05-08 14:52 47.48361 -52.17505 34798 ft 509 kts 87°
2026-05-08 14:53 47.49334 -52.07209 34814 ft 509 kts 87°
2026-05-08 14:53 47.50883 -51.97030 34827 ft 516 kts 76°
2026-05-08 14:54 47.53318 -51.87026 34824 ft 518 kts 73°
2026-05-08 14:54 47.55920 -51.77065 34832 ft 519 kts 72°
2026-05-08 14:55 47.58528 -51.67104 34835 ft 519 kts 72°
2026-05-08 14:55 47.61089 -51.57197 34833 ft 518 kts 72°
2026-05-08 14:56 47.63642 -51.47225 34846 ft 517 kts 72°
2026-05-08 14:56 47.66178 -51.37259 34856 ft 516 kts 72°
2026-05-08 14:57 47.68706 -51.27285 34856 ft 516 kts 72°
2026-05-08 14:57 47.71207 -51.17376 34859 ft 516 kts 72°
2026-05-08 14:58 47.73715 -51.07397 34863 ft 516 kts 72°
2026-05-08 14:58 47.76215 -50.97409 34862 ft 514 kts 72°
2026-05-08 14:59 47.78696 -50.87448 34867 ft 514 kts 72°
2026-05-08 14:59 47.82383 -50.72565 34864 ft 513 kts 73°
2026-05-08 15:00 47.84834 -50.62620 34876 ft 511 kts 73°
2026-05-08 15:00 47.87275 -50.52667 34886 ft 513 kts 73°
2026-05-08 15:01 47.89715 -50.42675 34884 ft 513 kts 73°
2026-05-08 15:01 47.92146 -50.32675 34895 ft 513 kts 73°
2026-05-08 15:02 47.94550 -50.22741 34897 ft 513 kts 73°
2026-05-08 15:02 47.96963 -50.12726 34895 ft 513 kts 72°
2026-05-08 15:03 47.99309 -50.02675 34897 ft 511 kts 78°
2026-05-08 15:03 48.00349 -49.92273 34914 ft 506 kts 88°
2026-05-08 15:04 48.00856 -49.81881 34917 ft 504 kts 90°
2026-05-08 15:04 48.01251 -49.71442 34926 ft 503 kts 90°
2026-05-08 15:05 48.01645 -49.60993 34930 ft 504 kts 90°
2026-05-08 15:05 48.02050 -49.50544 34946 ft 504 kts 90°
2026-05-08 15:06 48.02453 -49.40162 34946 ft 504 kts 90°
2026-05-08 15:06 48.02850 -49.29706 34952 ft 504 kts 90°
2026-05-08 15:07 48.03236 -49.19256 34963 ft 503 kts 89°
2026-05-08 15:07 48.03612 -49.08819 34965 ft 503 kts 89°
2026-05-08 15:08 48.03917 -49.00130 34976 ft 504 kts 89°
2026-05-08 15:08 48.04333 -48.87981 34984 ft 504 kts 89°
2026-05-08 15:09 48.04681 -48.77523 34996 ft 504 kts 89°
2026-05-08 15:09 48.05019 -48.67059 34984 ft 504 kts 89°
2026-05-08 15:10 48.05346 -48.56658 35010 ft 505 kts 89°
2026-05-08 15:10 48.05665 -48.46187 35010 ft 505 kts 89°
2026-05-08 15:11 48.05975 -48.35704 35018 ft 505 kts 90°
2026-05-08 15:11 48.06276 -48.25218 35029 ft 505 kts 90°
2026-05-08 15:12 48.06565 -48.14805 35029 ft 505 kts 90°
2026-05-08 15:12 48.06847 -48.04326 35031 ft 504 kts 89°
2026-05-08 15:13 48.07119 -47.93846 35044 ft 505 kts 89°
2026-05-08 15:13 48.07382 -47.83356 35042 ft 505 kts 89°
2026-05-08 15:14 48.07634 -47.72930 35042 ft 505 kts 89°
2026-05-08 15:14 48.07877 -47.62440 35048 ft 505 kts 89°
2026-05-08 15:15 48.08112 -47.51942 35056 ft 505 kts 89°
2026-05-08 15:15 48.08337 -47.41446 35061 ft 505 kts 89°
2026-05-08 15:16 48.08552 -47.30953 35070 ft 505 kts 89°
2026-05-08 15:16 48.08756 -47.20516 35070 ft 506 kts 89°
2026-05-08 15:17 48.08952 -47.10005 35080 ft 506 kts 90°
2026-05-08 15:17 48.09139 -46.99491 35080 ft 506 kts 90°
2026-05-08 15:18 48.09317 -46.88978 35080 ft 506 kts 90°
2026-05-08 15:18 48.09483 -46.78549 35096 ft 504 kts 89°
2026-05-08 15:19 48.09641 -46.68076 35104 ft 503 kts 90°
2026-05-08 15:19 48.09788 -46.57624 35112 ft 502 kts 90°
2026-05-08 15:20 48.09927 -46.47174 35119 ft 502 kts 90°
2026-05-08 15:20 48.10055 -46.36721 35128 ft 502 kts 90°
2026-05-08 15:21 48.10173 -46.26346 35119 ft 502 kts 90°
2026-05-08 15:21 48.10283 -46.15892 35148 ft 502 kts 90°
2026-05-08 15:22 48.10384 -46.05443 35142 ft 502 kts 90°
2026-05-08 15:22 48.10475 -45.95004 35145 ft 502 kts 90°
2026-05-08 15:23 48.10556 -45.84622 35156 ft 502 kts 90°
2026-05-08 15:23 48.10628 -45.74176 35159 ft 502 kts 90°
2026-05-08 15:24 48.10690 -45.63730 35165 ft 502 kts 89°
2026-05-08 15:24 48.10743 -45.53288 35169 ft 502 kts 89°
2026-05-08 15:25 48.10786 -45.42922 35184 ft 502 kts 89°
2026-05-08 15:25 48.10820 -45.32491 35192 ft 502 kts 89°
2026-05-08 15:26 48.10845 -45.22061 35183 ft 501 kts 89°
2026-05-08 15:26 48.10860 -45.11622 35189 ft 501 kts 89°
2026-05-08 15:27 48.10866 -45.01260 35203 ft 501 kts 89°
2026-05-08 15:27 48.10862 -44.90900 35216 ft 500 kts 89°
2026-05-08 15:28 48.10849 -44.80487 35206 ft 500 kts 88°
2026-05-08 15:28 48.10827 -44.70090 35223 ft 500 kts 89°
2026-05-08 15:29 48.10796 -44.59768 35231 ft 500 kts 89°
2026-05-08 15:29 48.10755 -44.49368 35234 ft 500 kts 89°
2026-05-08 15:30 48.10704 -44.38984 35229 ft 498 kts 88°
2026-05-08 15:30 48.10644 -44.28622 35242 ft 497 kts 88°
2026-05-08 15:31 48.10575 -44.18298 35245 ft 495 kts 88°
2026-05-08 15:31 48.10498 -44.08002 35238 ft 495 kts 88°
2026-05-08 15:32 48.10412 -43.97769 35249 ft 495 kts 88°
2026-05-08 15:32 48.10316 -43.87471 35257 ft 495 kts 88°
2026-05-08 15:33 48.10211 -43.77202 35262 ft 492 kts 88°
2026-05-08 15:33 48.10098 -43.67046 35275 ft 491 kts 88°
2026-05-08 15:34 48.09975 -43.56868 35278 ft 488 kts 88°
2026-05-08 15:34 48.09845 -43.46711 35284 ft 488 kts 88°
2026-05-08 15:35 48.09706 -43.36562 35275 ft 488 kts 88°
2026-05-08 15:35 48.09558 -43.26408 35291 ft 488 kts 88°
2026-05-08 15:36 48.09427 -43.17992 35292 ft 485 kts 88°
2026-05-08 15:36 48.09235 -43.06290 35290 ft 483 kts 87°
2026-05-08 15:37 48.09062 -42.96262 35296 ft 482 kts 87°
2026-05-08 15:37 48.08881 -42.86253 35299 ft 481 kts 87°
2026-05-08 15:38 48.08693 -42.76309 35304 ft 481 kts 87°
2026-05-08 15:38 48.08494 -42.66297 35311 ft 481 kts 87°
2026-05-08 15:39 48.08286 -42.56328 35308 ft 478 kts 86°
2026-05-08 15:39 48.08072 -42.46408 35311 ft 477 kts 87°
2026-05-08 15:40 48.07850 -42.36481 35316 ft 477 kts 87°
2026-05-08 15:40 48.07621 -42.26633 35322 ft 477 kts 87°
2026-05-08 15:41 48.07382 -42.16709 35319 ft 477 kts 87°
2026-05-08 15:41 48.07133 -42.06792 35329 ft 477 kts 87°
2026-05-08 15:42 48.06876 -41.96887 35322 ft 476 kts 86°
2026-05-08 15:42 48.06611 -41.87026 35329 ft 473 kts 86°
2026-05-08 15:43 48.06341 -41.77299 35328 ft 470 kts 86°
2026-05-08 15:43 48.06065 -41.67546 35327 ft 470 kts 86°
2026-05-08 15:44 48.05780 -41.57794 35336 ft 470 kts 86°
2026-05-08 15:44 48.05486 -41.48031 35336 ft 470 kts 86°
2026-05-08 15:45 48.05186 -41.38337 35336 ft 470 kts 86°
2026-05-08 15:45 48.04875 -41.28577 35349 ft 470 kts 87°
2026-05-08 15:46 48.04556 -41.18850 35335 ft 467 kts 87°
2026-05-08 15:46 48.04230 -41.09156 35343 ft 467 kts 87°
2026-05-08 15:47 48.03898 -40.99473 35340 ft 467 kts 87°
2026-05-08 15:47 48.03560 -40.89849 35345 ft 467 kts 87°
2026-05-08 15:48 48.03033 -40.75347 35346 ft 465 kts 87°
2026-05-08 15:49 48.02673 -40.65713 35349 ft 465 kts 87°
2026-05-08 15:49 48.02306 -40.56077 35346 ft 465 kts 88°
2026-05-08 15:50 48.01933 -40.46496 35346 ft 465 kts 88°
2026-05-08 15:50 48.01548 -40.36855 35350 ft 465 kts 88°
2026-05-08 15:51 48.01156 -40.27213 35363 ft 465 kts 88°
2026-05-08 15:51 48.00756 -40.17572 35355 ft 466 kts 88°
2026-05-08 15:52 48.00350 -40.07987 35364 ft 466 kts 88°
2026-05-08 15:52 48.00716 -39.98457 35359 ft 455 kts 71°
2026-05-08 15:53 48.02578 -39.89515 35359 ft 450 kts 64°
2026-05-08 15:53 48.04766 -39.80771 35364 ft 449 kts 63°
2026-05-08 15:54 48.06983 -39.72117 35364 ft 449 kts 63°
2026-05-08 15:54 48.09188 -39.63378 35373 ft 450 kts 64°
2026-05-08 15:55 48.11378 -39.54583 35368 ft 452 kts 64°
2026-05-08 15:55 48.14645 -39.41339 35370 ft 452 kts 64°
2026-05-08 15:56 48.16799 -39.32565 35374 ft 452 kts 64°
2026-05-08 15:56 48.18963 -39.23722 35373 ft 452 kts 64°
2026-05-08 15:57 48.21117 -39.14884 35379 ft 451 kts 64°
2026-05-08 15:57 48.23264 -39.06044 35385 ft 451 kts 64°
2026-05-08 15:58 48.25382 -38.97285 35382 ft 449 kts 64°
2026-05-08 15:58 48.27505 -38.88473 35409 ft 449 kts 64°
2026-05-08 15:59 48.29613 -38.79685 35388 ft 447 kts 64°
2026-05-08 15:59 48.31357 -38.72391 35385 ft 446 kts 65°
2026-05-08 16:00 48.33448 -38.63614 35389 ft 446 kts 65°
2026-05-08 16:00 48.35533 -38.54828 35387 ft 446 kts 65°
2026-05-08 16:01 48.37595 -38.46099 35393 ft 446 kts 65°
2026-05-08 16:01 48.39661 -38.37316 35392 ft 445 kts 65°
2026-05-08 16:02 48.41720 -38.28533 35392 ft 445 kts 65°
2026-05-08 16:02 48.44104 -38.18317 35396 ft 445 kts 65°
2026-05-08 16:03 48.45817 -38.10946 35395 ft 445 kts 65°
2026-05-08 16:03 48.47839 -38.02207 35395 ft 444 kts 64°
2026-05-08 16:04 48.49867 -37.93413 35394 ft 444 kts 64°
2026-05-08 16:04 48.51888 -37.84611 35404 ft 444 kts 64°
2026-05-08 16:05 48.53903 -37.75803 35406 ft 444 kts 64°
2026-05-08 16:05 48.55896 -37.67050 35400 ft 444 kts 65°
2026-05-08 16:06 48.57898 -37.58222 35402 ft 444 kts 65°
2026-05-08 16:06 48.59893 -37.49389 35402 ft 444 kts 65°
2026-05-08 16:07 48.61881 -37.40551 35400 ft 444 kts 65°
2026-05-08 16:07 48.63849 -37.31763 35398 ft 444 kts 65°
2026-05-08 16:08 48.65824 -37.22906 35408 ft 444 kts 64°
2026-05-08 16:08 48.67792 -37.14047 35409 ft 444 kts 64°
2026-05-08 16:09 48.69753 -37.05180 35409 ft 444 kts 64°
2026-05-08 16:09 48.71695 -36.96363 35414 ft 444 kts 64°
2026-05-08 16:10 48.73643 -36.87478 35442 ft 445 kts 64°
2026-05-08 16:10 48.75584 -36.78584 35418 ft 445 kts 64°
2026-05-08 16:11 48.77521 -36.69678 35417 ft 445 kts 64°
2026-05-08 16:11 48.79451 -36.60763 35413 ft 445 kts 64°
2026-05-08 16:12 48.81361 -36.51899 35419 ft 445 kts 64°
2026-05-08 16:12 48.83275 -36.42975 35424 ft 444 kts 63°
2026-05-08 16:13 48.85173 -36.34087 35422 ft 442 kts 64°
2026-05-08 16:13 48.87062 -36.25209 35425 ft 442 kts 64°
2026-05-08 16:14 48.88932 -36.16383 35425 ft 442 kts 64°
2026-05-08 16:14 48.90808 -36.07494 35427 ft 442 kts 64°
2026-05-08 16:15 48.92674 -35.98600 35427 ft 440 kts 64°
2026-05-08 16:15 48.94526 -35.89734 35427 ft 440 kts 64°
2026-05-08 16:16 48.96372 -35.80866 35427 ft 440 kts 64°
2026-05-08 16:16 48.98200 -35.72048 35427 ft 440 kts 64°
2026-05-08 16:17 49.00032 -35.63169 35457 ft 440 kts 64°
2026-05-08 16:17 49.01860 -35.54272 35426 ft 441 kts 65°
2026-05-08 16:18 49.03690 -35.45330 35427 ft 443 kts 65°
2026-05-08 16:18 49.05501 -35.36427 35427 ft 443 kts 65°
2026-05-08 16:19 49.07318 -35.27454 35429 ft 443 kts 65°
2026-05-08 16:19 49.09129 -35.18477 35442 ft 443 kts 65°
2026-05-08 16:20 49.10940 -35.09461 35436 ft 445 kts 65°
2026-05-08 16:20 49.12733 -35.00488 35435 ft 445 kts 65°
2026-05-08 16:21 49.14530 -34.91448 35438 ft 445 kts 66°
2026-05-08 16:21 49.16322 -34.82397 35433 ft 445 kts 66°
2026-05-08 16:22 49.18107 -34.73338 35435 ft 446 kts 66°
2026-05-08 16:22 49.19891 -34.64244 35436 ft 447 kts 66°
2026-05-08 16:23 49.21657 -34.55200 35437 ft 447 kts 66°
2026-05-08 16:23 49.23427 -34.46087 35435 ft 447 kts 66°
2026-05-08 16:24 49.25191 -34.36960 35456 ft 447 kts 66°
2026-05-08 16:24 49.26948 -34.27830 35439 ft 447 kts 66°
2026-05-08 16:25 49.28688 -34.18746 35436 ft 448 kts 66°
2026-05-08 16:25 49.30433 -34.09593 35435 ft 448 kts 66°
2026-05-08 16:26 49.32170 -34.00434 35433 ft 448 kts 66°
2026-05-08 16:26 49.33900 -33.91266 35441 ft 447 kts 66°
2026-05-08 16:27 49.35608 -33.82167 35434 ft 447 kts 66°
2026-05-08 16:27 49.37322 -33.72998 35441 ft 447 kts 66°
2026-05-08 16:28 49.39029 -33.63824 35435 ft 447 kts 66°
2026-05-08 16:28 49.40728 -33.54642 35438 ft 447 kts 66°
2026-05-08 16:29 49.42410 -33.45507 35436 ft 447 kts 66°
2026-05-08 16:29 49.44096 -33.36308 35435 ft 447 kts 66°
2026-05-08 16:30 49.45775 -33.27099 35441 ft 448 kts 66°
2026-05-08 16:30 49.47447 -33.17880 35440 ft 448 kts 67°
2026-05-08 16:31 49.49112 -33.08656 35447 ft 448 kts 66°
2026-05-08 16:31 49.50763 -32.99464 35433 ft 450 kts 66°
2026-05-08 16:32 49.52423 -32.90172 35435 ft 450 kts 67°
2026-05-08 16:32 49.54075 -32.80872 35435 ft 451 kts 67°
2026-05-08 16:33 49.55721 -32.71563 35438 ft 450 kts 67°
2026-05-08 16:33 49.57347 -32.62310 35436 ft 450 kts 66°
2026-05-08 16:34 49.58973 -32.53014 35432 ft 449 kts 66°
2026-05-08 16:34 49.60592 -32.43715 35436 ft 449 kts 66°
2026-05-08 16:35 49.62203 -32.34413 35433 ft 449 kts 66°
2026-05-08 16:35 49.63796 -32.25165 35430 ft 449 kts 66°
2026-05-08 16:36 49.65390 -32.15851 35433 ft 448 kts 66°
2026-05-08 16:36 49.66973 -32.06558 35434 ft 448 kts 66°
2026-05-08 16:37 49.68549 -31.97261 35432 ft 448 kts 66°
2026-05-08 16:37 49.70117 -31.87962 35439 ft 448 kts 66°
2026-05-08 16:38 49.71669 -31.78709 35460 ft 448 kts 67°
2026-05-08 16:38 49.73222 -31.69396 35427 ft 447 kts 67°
2026-05-08 16:39 49.74768 -31.60076 35430 ft 447 kts 67°
2026-05-08 16:39 49.76305 -31.50758 35427 ft 447 kts 67°
2026-05-08 16:40 49.77826 -31.41488 35427 ft 447 kts 67°
2026-05-08 16:40 49.79349 -31.32157 35436 ft 447 kts 68°
2026-05-08 16:41 49.80867 -31.22800 35431 ft 448 kts 68°
2026-05-08 16:42 49.83121 -31.08810 35414 ft 448 kts 68°
2026-05-08 16:42 49.84620 -30.99433 35425 ft 448 kts 68°
2026-05-08 16:43 49.86112 -30.90052 35443 ft 449 kts 69°
2026-05-08 16:43 49.87600 -30.80651 35419 ft 449 kts 69°
2026-05-08 16:44 49.89080 -30.71240 35422 ft 450 kts 69°
2026-05-08 16:44 49.90544 -30.61878 35420 ft 450 kts 69°
2026-05-08 16:45 49.92009 -30.52451 35419 ft 450 kts 69°
2026-05-08 16:45 49.93467 -30.43014 35417 ft 450 kts 69°
2026-05-08 16:46 49.94920 -30.33562 35414 ft 450 kts 69°
2026-05-08 16:46 49.96356 -30.24160 35411 ft 450 kts 69°
2026-05-08 16:47 49.97792 -30.14699 35409 ft 450 kts 69°
2026-05-08 16:47 49.99223 -30.05220 35408 ft 450 kts 69°
2026-05-08 16:48 50.01044 -29.96014 35417 ft 443 kts 62°
2026-05-08 16:48 50.03217 -29.87125 35403 ft 442 kts 61°
2026-05-08 16:49 50.05466 -29.78218 35400 ft 442 kts 61°
2026-05-08 16:49 50.07711 -29.69311 35400 ft 442 kts 61°
2026-05-08 16:50 50.09940 -29.60384 35426 ft 442 kts 61°
2026-05-08 16:50 50.12139 -29.51515 35395 ft 441 kts 61°
2026-05-08 16:51 50.14343 -29.42588 35395 ft 441 kts 61°
2026-05-08 16:51 50.16540 -29.33657 35405 ft 441 kts 61°
2026-05-08 16:52 50.18730 -29.24719 35390 ft 441 kts 61°
2026-05-08 16:52 50.20899 -29.15832 35389 ft 441 kts 62°
2026-05-08 16:53 50.24161 -29.02396 35400 ft 441 kts 62°
2026-05-08 16:53 50.26326 -28.93429 35398 ft 441 kts 62°
2026-05-08 16:54 50.28487 -28.84447 35389 ft 441 kts 62°
2026-05-08 16:54 50.30624 -28.75526 35392 ft 440 kts 62°
2026-05-08 16:55 50.32753 -28.66592 35387 ft 437 kts 62°
2026-05-08 16:55 50.34873 -28.57670 35387 ft 437 kts 62°
2026-05-08 16:56 50.36987 -28.48743 35385 ft 437 kts 62°
2026-05-08 16:56 50.39094 -28.39806 35385 ft 437 kts 62°
2026-05-08 16:57 50.41178 -28.30926 35378 ft 437 kts 62°
2026-05-08 16:57 50.43266 -28.21988 35373 ft 436 kts 62°
2026-05-08 16:58 50.45349 -28.13041 35379 ft 436 kts 62°
2026-05-08 16:58 50.47425 -28.04084 35376 ft 437 kts 62°
2026-05-08 16:59 50.49479 -27.95183 35404 ft 437 kts 62°
2026-05-08 16:59 50.51538 -27.86222 35368 ft 436 kts 62°
2026-05-08 17:00 50.53587 -27.77270 35365 ft 435 kts 62°
2026-05-08 17:00 50.55630 -27.68310 35366 ft 435 kts 62°
2026-05-08 17:01 50.57651 -27.59407 35360 ft 435 kts 63°
2026-05-08 17:01 50.59680 -27.50427 35366 ft 435 kts 62°
2026-05-08 17:02 50.61694 -27.41470 35357 ft 434 kts 63°
2026-05-08 17:02 50.63699 -27.32517 35358 ft 433 kts 63°
2026-05-08 17:03 50.65686 -27.23613 35355 ft 433 kts 63°
2026-05-08 17:03 50.67679 -27.14644 35354 ft 434 kts 63°
2026-05-08 17:04 50.69663 -27.05673 35343 ft 433 kts 63°
2026-05-08 17:04 50.71636 -26.96713 35342 ft 432 kts 63°
2026-05-08 17:05 50.73589 -26.87812 35347 ft 432 kts 63°
2026-05-08 17:05 50.75548 -26.78839 35346 ft 432 kts 63°
2026-05-08 17:06 50.77501 -26.69857 35344 ft 432 kts 63°
2026-05-08 17:06 50.79442 -26.60884 35344 ft 431 kts 63°
2026-05-08 17:07 50.81357 -26.51996 35338 ft 430 kts 63°
2026-05-08 17:07 50.83279 -26.43040 35335 ft 430 kts 63°
2026-05-08 17:08 50.85194 -26.34082 35335 ft 430 kts 63°
2026-05-08 17:08 50.87102 -26.25110 35369 ft 430 kts 63°
2026-05-08 17:09 50.88998 -26.16151 35330 ft 428 kts 63°
2026-05-08 17:09 50.90870 -26.07270 35329 ft 428 kts 63°
2026-05-08 17:10 50.92748 -25.98323 35330 ft 428 kts 63°
2026-05-08 17:10 50.94620 -25.89371 35324 ft 428 kts 63°
2026-05-08 17:11 50.96485 -25.80408 35340 ft 428 kts 64°
2026-05-08 17:11 50.98333 -25.71489 35320 ft 429 kts 64°
2026-05-08 17:12 51.00190 -25.62481 35319 ft 429 kts 64°
2026-05-08 17:12 51.02039 -25.53469 35316 ft 429 kts 64°
2026-05-08 17:13 51.03880 -25.44454 35314 ft 429 kts 64°
2026-05-08 17:13 51.05704 -25.35490 35323 ft 430 kts 65°
2026-05-08 17:14 51.07545 -25.26405 35319 ft 432 kts 65°
2026-05-08 17:14 51.09379 -25.17297 35308 ft 433 kts 65°
2026-05-08 17:15 51.11207 -25.08180 35307 ft 433 kts 65°
2026-05-08 17:15 51.13016 -24.99117 35310 ft 433 kts 65°
2026-05-08 17:16 51.14830 -24.89984 35302 ft 433 kts 66°
2026-05-08 17:16 51.16637 -24.80848 35290 ft 433 kts 66°
2026-05-08 17:17 51.18439 -24.71694 35300 ft 433 kts 66°
2026-05-08 17:17 51.20231 -24.62543 35301 ft 433 kts 66°
2026-05-08 17:18 51.22006 -24.53443 35296 ft 433 kts 66°
2026-05-08 17:18 51.23791 -24.44252 35293 ft 435 kts 67°
2026-05-08 17:19 51.25580 -24.34994 35291 ft 437 kts 67°
2026-05-08 17:19 51.27361 -24.25719 35290 ft 437 kts 67°
2026-05-08 17:20 51.29123 -24.16500 35289 ft 437 kts 67°
2026-05-08 17:20 51.30890 -24.07214 35283 ft 437 kts 67°
2026-05-08 17:21 51.32657 -23.97891 35283 ft 440 kts 68°
2026-05-08 17:21 51.34424 -23.88513 35283 ft 441 kts 68°
2026-05-08 17:22 51.36184 -23.79121 35275 ft 441 kts 68°
2026-05-08 17:22 51.37924 -23.69788 35277 ft 441 kts 68°
2026-05-08 17:23 51.39671 -23.60375 35279 ft 441 kts 69°
2026-05-08 17:23 51.41420 -23.50912 35273 ft 445 kts 69°
2026-05-08 17:24 51.43167 -23.41403 35268 ft 445 kts 69°
2026-05-08 17:24 51.44895 -23.31945 35268 ft 445 kts 69°
2026-05-08 17:25 51.46627 -23.22411 35268 ft 445 kts 69°
2026-05-08 17:25 51.48352 -23.12874 35271 ft 446 kts 70°
2026-05-08 17:26 51.50081 -23.03275 35262 ft 449 kts 70°
2026-05-08 17:26 51.51792 -22.93710 35262 ft 449 kts 70°
2026-05-08 17:27 51.53507 -22.84073 35263 ft 449 kts 70°
2026-05-08 17:27 51.55214 -22.74431 35263 ft 449 kts 70°
2026-05-08 17:28 51.56917 -22.64763 35261 ft 451 kts 71°
2026-05-08 17:28 51.58618 -22.55052 35260 ft 452 kts 71°
2026-05-08 17:29 51.60301 -22.45393 35258 ft 452 kts 71°
2026-05-08 17:29 51.61986 -22.35660 35255 ft 452 kts 71°
2026-05-08 17:30 51.63663 -22.25927 35264 ft 452 kts 71°
2026-05-08 17:30 51.65326 -22.16221 35255 ft 453 kts 71°
2026-05-08 17:31 51.66994 -22.06433 35258 ft 453 kts 71°
2026-05-08 17:31 51.68654 -21.96636 35250 ft 454 kts 72°
2026-05-08 17:32 51.70306 -21.86828 35253 ft 454 kts 72°
2026-05-08 17:32 51.71940 -21.77071 35249 ft 454 kts 72°
2026-05-08 17:33 51.73579 -21.67234 35249 ft 455 kts 72°
2026-05-08 17:33 51.75214 -21.57363 35253 ft 456 kts 72°
2026-05-08 17:34 51.76840 -21.47485 35251 ft 456 kts 72°
2026-05-08 17:34 51.78459 -21.37595 35247 ft 455 kts 72°
2026-05-08 17:35 51.80060 -21.27756 35248 ft 458 kts 73°
2026-05-08 17:35 51.81677 -21.17769 35251 ft 461 kts 73°
2026-05-08 17:36 51.83288 -21.07750 35242 ft 461 kts 73°
2026-05-08 17:36 51.84895 -20.97697 35232 ft 462 kts 74°
2026-05-08 17:37 51.86497 -20.87612 35233 ft 464 kts 75°
2026-05-08 17:37 51.88093 -20.77508 35233 ft 469 kts 75°
2026-05-08 17:38 51.89702 -20.67257 35230 ft 470 kts 75°
2026-05-08 17:38 51.91302 -20.56995 35229 ft 470 kts 75°
2026-05-08 17:39 51.92895 -20.46715 35229 ft 470 kts 75°
2026-05-08 17:39 51.94477 -20.36444 35230 ft 470 kts 75°
2026-05-08 17:40 51.96039 -20.26235 35232 ft 470 kts 75°
2026-05-08 17:40 51.97604 -20.15940 35232 ft 470 kts 76°
2026-05-08 17:41 51.99160 -20.05645 35232 ft 470 kts 76°
2026-05-08 17:41 52.00635 -19.95317 35223 ft 470 kts 78°
2026-05-08 17:42 52.01901 -19.84922 35229 ft 475 kts 79°
2026-05-08 17:42 52.03136 -19.74373 35226 ft 476 kts 79°
2026-05-08 17:43 52.04378 -19.63831 35226 ft 475 kts 79°
2026-05-08 17:43 52.05626 -19.53284 35229 ft 475 kts 79°
2026-05-08 17:44 52.06862 -19.42796 35227 ft 477 kts 80°
2026-05-08 17:44 52.08104 -19.32161 35223 ft 480 kts 80°
2026-05-08 17:45 52.09340 -19.21493 35226 ft 480 kts 80°
2026-05-08 17:45 52.10567 -19.10812 35223 ft 480 kts 80°
2026-05-08 17:46 52.11783 -19.00132 35216 ft 480 kts 80°
2026-05-08 17:46 52.12984 -18.89488 35223 ft 483 kts 82°
2026-05-08 17:47 52.14192 -18.78695 35217 ft 485 kts 82°
2026-05-08 17:47 52.15189 -18.69723 35216 ft 484 kts 81°
2026-05-08 17:48 52.16579 -18.57092 35220 ft 484 kts 82°
2026-05-08 17:48 52.17750 -18.46350 35221 ft 485 kts 82°
2026-05-08 17:49 52.18922 -18.35503 35221 ft 486 kts 82°
2026-05-08 17:49 52.20083 -18.24652 35221 ft 486 kts 82°
2026-05-08 17:50 52.21235 -18.13792 35218 ft 486 kts 82°
2026-05-08 17:50 52.22377 -18.02925 35207 ft 486 kts 82°
2026-05-08 17:51 52.23503 -17.92119 35219 ft 487 kts 82°
2026-05-08 17:51 52.24626 -17.81230 35216 ft 487 kts 83°
2026-05-08 17:52 52.25741 -17.70330 35219 ft 487 kts 83°
2026-05-08 17:53 52.27385 -17.54046 35211 ft 487 kts 83°
2026-05-08 17:53 52.28475 -17.43130 35217 ft 487 kts 83°
2026-05-08 17:54 52.29553 -17.32219 35215 ft 487 kts 83°
2026-05-08 17:54 52.30622 -17.21294 35217 ft 487 kts 83°
2026-05-08 17:55 52.31680 -17.10369 35218 ft 487 kts 83°
2026-05-08 17:55 52.32722 -16.99511 35214 ft 487 kts 84°
2026-05-08 17:56 52.33762 -16.88556 35215 ft 488 kts 84°
2026-05-08 17:56 52.34792 -16.77594 35208 ft 488 kts 84°
2026-05-08 17:57 52.35811 -16.66637 35214 ft 488 kts 84°
2026-05-08 17:57 52.36821 -16.55670 35197 ft 488 kts 85°
2026-05-08 17:58 52.37815 -16.44747 35208 ft 489 kts 85°
2026-05-08 17:58 52.38807 -16.33738 35209 ft 489 kts 85°
2026-05-08 17:59 52.39789 -16.22721 35204 ft 489 kts 85°
2026-05-08 17:59 52.40761 -16.11703 35204 ft 489 kts 85°
2026-05-08 18:00 52.41723 -16.00671 35202 ft 490 kts 85°
2026-05-08 18:00 52.43143 -15.84147 35206 ft 491 kts 86°
2026-05-08 18:01 52.44083 -15.73068 35203 ft 491 kts 86°
2026-05-08 18:01 52.45012 -15.61986 35200 ft 491 kts 86°
2026-05-08 18:02 52.45776 -15.52775 35200 ft 491 kts 86°
2026-05-08 18:02 52.46832 -15.39887 35198 ft 490 kts 86°
2026-05-08 18:03 52.47730 -15.28795 35198 ft 490 kts 86°
2026-05-08 18:03 52.48616 -15.17709 35198 ft 490 kts 86°
2026-05-08 18:04 52.49493 -15.06607 35193 ft 491 kts 87°
2026-05-08 18:04 52.49993 -14.95549 35192 ft 488 kts 93°
2026-05-08 18:05 52.50093 -14.84411 35191 ft 488 kts 94°
2026-05-08 18:05 52.50110 -14.73288 35192 ft 488 kts 95°
2026-05-08 18:06 52.50112 -14.62152 35186 ft 488 kts 95°
2026-05-08 18:06 52.50112 -14.51019 35187 ft 488 kts 95°
2026-05-08 18:07 52.50107 -14.39940 35187 ft 489 kts 95°
2026-05-08 18:07 52.50093 -14.28783 35194 ft 489 kts 95°
2026-05-08 18:08 52.50069 -14.17629 35190 ft 489 kts 95°
2026-05-08 18:08 52.50034 -14.06473 35171 ft 489 kts 95°
2026-05-08 18:09 52.50112 -13.95362 35176 ft 492 kts 92°
2026-05-08 18:09 52.50423 -13.84128 35182 ft 493 kts 92°
2026-05-08 18:10 52.50727 -13.72892 35180 ft 493 kts 92°
2026-05-08 18:10 52.51013 -13.61655 35171 ft 493 kts 92°
2026-05-08 18:11 52.51284 -13.50483 35172 ft 493 kts 93°
2026-05-08 18:11 52.51547 -13.39223 35173 ft 494 kts 93°
2026-05-08 18:12 52.51798 -13.27956 35173 ft 494 kts 93°
2026-05-08 18:12 52.52039 -13.16687 35170 ft 494 kts 93°
2026-05-08 18:13 52.52270 -13.05428 35144 ft 492 kts 94°
2026-05-08 18:13 52.52487 -12.94277 35162 ft 492 kts 94°
2026-05-08 18:14 52.52694 -12.83059 35162 ft 492 kts 94°
2026-05-08 18:14 52.52891 -12.71838 35162 ft 491 kts 94°
2026-05-08 18:15 52.53078 -12.60623 35162 ft 491 kts 94°
2026-05-08 18:15 52.53254 -12.49403 35158 ft 492 kts 94°
2026-05-08 18:16 52.53418 -12.38239 35153 ft 492 kts 94°
2026-05-08 18:16 52.53573 -12.27004 35161 ft 492 kts 94°
2026-05-08 18:17 52.53718 -12.15767 35161 ft 492 kts 94°
2026-05-08 18:17 52.53852 -12.04526 35135 ft 492 kts 94°
2026-05-08 18:18 52.53974 -11.93353 35152 ft 493 kts 94°
2026-05-08 18:18 52.54086 -11.82076 35136 ft 494 kts 95°
2026-05-08 18:19 52.54189 -11.70794 35146 ft 494 kts 95°
2026-05-08 18:19 52.54281 -11.59521 35132 ft 493 kts 95°
2026-05-08 18:20 52.54324 -11.53922 34795 ft 487 kts 95°
2026-05-08 18:20 52.54363 -11.48436 34024 ft 488 kts 96°
2026-05-08 18:20 52.54396 -11.42842 33054 ft 491 kts 95°
2026-05-08 18:20 52.54429 -11.37231 32126 ft 489 kts 95°
2026-05-08 18:21 52.54461 -11.31659 30854 ft 487 kts 95°
2026-05-08 18:21 52.54488 -11.26110 29350 ft 487 kts 94°
2026-05-08 18:21 52.54513 -11.20552 27913 ft 484 kts 94°
2026-05-08 18:21 52.54537 -11.15072 26904 ft 478 kts 94°
2026-05-08 18:22 52.54556 -11.09671 25903 ft 480 kts 93°
2026-05-08 18:22 52.54572 -11.04165 24827 ft 484 kts 93°
2026-05-08 18:22 52.54586 -10.98628 23770 ft 487 kts 92°
2026-05-08 18:22 52.54599 -10.93099 22908 ft 481 kts 92°
2026-05-08 18:23 52.54611 -10.87649 22122 ft 473 kts 92°
2026-05-08 18:23 52.54619 -10.82285 21346 ft 466 kts 92°
2026-05-08 18:23 52.54624 -10.76996 20572 ft 459 kts 92°
2026-05-08 18:23 52.54627 -10.71788 19818 ft 453 kts 92°
2026-05-08 18:24 52.54627 -10.66644 19037 ft 448 kts 92°
2026-05-08 18:24 52.54624 -10.61554 18224 ft 443 kts 92°
2026-05-08 18:24 52.54620 -10.56590 17412 ft 437 kts 92°
2026-05-08 18:24 52.54614 -10.51640 16667 ft 430 kts 92°
2026-05-08 18:25 52.54606 -10.46773 15929 ft 423 kts 92°
2026-05-08 18:25 52.54596 -10.41975 15177 ft 417 kts 92°
2026-05-08 18:25 52.54584 -10.37241 14451 ft 411 kts 92°
2026-05-08 18:25 52.54570 -10.32566 13705 ft 407 kts 92°
2026-05-08 18:26 52.54555 -10.27960 12970 ft 399 kts 91°
2026-05-08 18:26 52.54538 -10.23450 12267 ft 392 kts 91°
2026-05-08 18:26 52.54520 -10.19005 11579 ft 386 kts 91°
2026-05-08 18:26 52.54500 -10.14642 10948 ft 379 kts 91°
2026-05-08 18:27 52.54481 -10.10527 10811 ft 348 kts 91°
2026-05-08 18:27 52.54469 -10.07936 10773 ft 324 kts 91°
2026-05-08 18:27 52.54445 -10.03333 10570 ft 290 kts 91°
2026-05-08 18:27 52.54426 -10.00106 10200 ft 277 kts 91°
2026-05-08 18:28 52.54406 -9.96919 10037 ft 281 kts 91°
2026-05-08 18:28 52.54385 -9.93700 9911 ft 281 kts 91°
2026-05-08 18:28 52.54364 -9.90500 9772 ft 280 kts 91°
2026-05-08 18:28 52.54342 -9.87307 9591 ft 279 kts 91°
2026-05-08 18:29 52.54320 -9.84143 9345 ft 274 kts 91°
2026-05-08 18:29 52.54298 -9.81074 9128 ft 265 kts 91°
2026-05-08 18:29 52.54276 -9.78114 8830 ft 261 kts 91°
2026-05-08 18:29 52.54253 -9.75155 8487 ft 258 kts 91°
2026-05-08 18:30 52.54229 -9.72218 8187 ft 259 kts 91°
2026-05-08 18:30 52.54271 -9.69198 8044 ft 270 kts 87°
2026-05-08 18:30 52.54375 -9.66091 7614 ft 272 kts 86°
2026-05-08 18:30 52.54495 -9.63029 7260 ft 266 kts 86°
2026-05-08 18:31 52.54614 -9.60015 6894 ft 264 kts 86°
2026-05-08 18:31 52.54733 -9.57012 6547 ft 263 kts 86°
2026-05-08 18:31 52.54848 -9.54061 6182 ft 261 kts 86°
2026-05-08 18:31 52.54962 -9.51108 5831 ft 258 kts 86°
2026-05-08 18:32 52.55075 -9.48167 5495 ft 258 kts 86°
2026-05-08 18:32 52.55187 -9.45223 5148 ft 258 kts 85°
2026-05-08 18:32 52.55298 -9.42300 4781 ft 256 kts 85°
2026-05-08 18:32 52.55408 -9.39389 4355 ft 254 kts 85°
2026-05-08 18:33 52.55515 -9.36512 4016 ft 252 kts 85°
2026-05-08 18:33 52.55622 -9.33635 3673 ft 252 kts 84°
2026-05-08 18:33 52.55725 -9.30819 3355 ft 249 kts 85°
2026-05-08 18:33 52.55829 -9.27982 3066 ft 247 kts 84°
2026-05-08 18:34 52.55932 -9.25228 2997 ft 233 kts 83°
2026-05-08 18:34 52.56220 -9.22755 3020 ft 208 kts 69°
2026-05-08 18:34 52.56848 -9.20736 3013 ft 194 kts 55°
2026-05-08 18:34 52.57663 -9.18975 3002 ft 194 kts 51°
2026-05-08 18:35 52.58507 -9.17230 2994 ft 195 kts 51°
2026-05-08 18:35 52.59343 -9.15478 2996 ft 195 kts 52°
2026-05-08 18:35 52.60181 -9.13714 2997 ft 196 kts 52°
2026-05-08 18:35 52.61002 -9.11977 2846 ft 191 kts 52°
2026-05-08 18:36 52.61796 -9.10292 2561 ft 182 kts 52°
2026-05-08 18:36 52.62549 -9.08699 2305 ft 169 kts 52°
2026-05-08 18:36 52.63230 -9.07259 2084 ft 151 kts 51°
2026-05-08 18:36 52.63837 -9.05972 1864 ft 135 kts 51°
2026-05-08 18:37 52.64396 -9.04788 1688 ft 129 kts 51°
2026-05-08 18:37 52.64949 -9.03615 1510 ft 129 kts 51°
2026-05-08 18:37 52.65500 -9.02444 1337 ft 129 kts 51°
2026-05-08 18:37 52.66052 -9.01273 1166 ft 129 kts 51°
2026-05-08 18:38 52.66602 -9.00106 972 ft 129 kts 51°
2026-05-08 18:38 52.67151 -8.98940 794 ft 128 kts 48°
2026-05-08 18:38 52.67693 -8.97791 635 ft 129 kts 48°
2026-05-08 18:38 52.68240 -8.96628 455 ft 128 kts 48°
2026-05-08 18:39 52.68786 -8.95471 284 ft 127 kts 46°
2026-05-08 18:39 52.69323 -8.94324 89 ft 126 kts 47°
2026-05-08 18:39 52.69824 -8.93278 28 ft 96 kts 52°
2026-05-08 18:39 52.70121 -8.92642 21 ft 44 kts 51°
2026-05-08 18:40 52.70280 -8.92313 20 ft 35 kts 52°
2026-05-08 18:40 52.70422 -8.92011 18 ft 32 kts 51°
2026-05-08 18:40 52.70557 -8.91727 14 ft 31 kts 53°
2026-05-08 18:40 52.70685 -8.91446 11 ft 29 kts 52°
2026-05-08 18:41 52.70764 -8.91237 10 ft 13 kts 99°
2026-05-08 18:41 52.70700 -8.91167 12 ft 11 kts 169°
2026-05-08 18:41 52.70624 -8.91140 13 ft 11 kts 167°
2026-05-08 18:41 52.70545 -8.91112 12 ft 12 kts 169°
2026-05-08 18:42 52.70463 -8.91086 13 ft 12 kts 169°
2026-05-08 18:42 52.70377 -8.91061 13 ft 13 kts 170°
2026-05-08 18:42 52.70317 -8.91044 14 ft 14 kts 170°
2026-05-08 18:42 52.70221 -8.91015 14 ft 14 kts 171°
2026-05-08 18:43 52.70090 -8.91069 15 ft 16 kts 199°
2026-05-08 18:43 52.69970 -8.91134 16 ft 20 kts 198°
2026-05-08 18:43 52.69823 -8.91214 17 ft 24 kts 199°
2026-05-08 18:43 52.69664 -8.91305 19 ft 13 kts 199°
2026-05-08 18:44 52.69600 -8.91341 19 ft 16 kts 199°
2026-05-08 18:44 52.69479 -8.91406 21 ft 20 kts 198°
2026-05-08 18:44 52.69332 -8.91486 23 ft 24 kts 199°
2026-05-08 18:44 52.69260 -8.91605 23 ft 15 kts 292°
2026-05-08 18:45 52.69333 -8.91741 25 ft 17 kts 333°
2026-05-08 18:45 52.69420 -8.91814 24 ft 14 kts 308°
2026-05-08 18:45 52.69464 -8.92040 25 ft 17 kts 283°
2026-05-08 18:45 52.69476 -8.92143 24 ft 2 kts 254°
2026-05-08 18:46 52.69465 -8.92158 29 ft 3 kts 204°
2026-05-08 18:46 52.69428 -8.92167 25 ft 8 kts 185°
2026-05-08 18:46 52.69390 -8.92173 29 ft 1 kts 186°
2026-05-08 18:46 52.69374 -8.92176 28 ft 1 kts 186°
2026-05-08 18:47 52.69371 -8.92176 28 ft 0 kts 186°